Time,TemperatureF,DewpointF,PressureIn,WindDirection,WindDirectionDegrees,WindSpeedMPH,WindSpeedGustMPH,Humidity,HourlyPrecipIn,Conditions,Clouds,dailyrainin,SoftwareType,DateUTC
2013-08-24 00:00:00,67.9,64.2,30.04,North,11,0.0,2.0,88,0.00,,---,0.00,VWS V14.01,2013-08-24 04:00:00,
2013-08-24 00:01:00,67.0,63.7,30.05,NNW,338,0.0,2.0,89,0.00,,---,0.00,VWS V14.01,2013-08-24 04:01:00,
2013-08-24 00:06:00,66.8,63.5,30.05,NNW,338,0.0,2.0,89,0.00,,---,0.00,VWS V14.01,2013-08-24 04:06:00,
2013-08-24 00:11:00,66.6,63.3,30.05,NNW,338,0.0,2.0,89,0.00,,---,0.00,VWS V14.01,2013-08-24 04:11:00,
2013-08-24 00:16:00,66.4,63.1,30.05,NNW,338,0.0,2.0,89,0.00,,---,0.00,VWS V14.01,2013-08-24 04:16:00,
2013-08-24 00:21:00,66.2,62.9,30.06,NNW,338,0.0,2.0,89,0.00,,---,0.00,VWS V14.01,2013-08-24 04:21:00,
2013-08-24 00:26:00,65.9,62.9,30.06,NNW,338,0.0,2.0,90,0.00,,---,0.00,VWS V14.01,2013-08-24 04:26:00,
2013-08-24 00:30:00,67.4,64.1,30.04,North,9,0.0,2.0,89,0.00,,---,0.00,VWS V14.01,2013-08-24 04:30:00,
2013-08-24 00:31:00,65.7,62.7,30.06,NNW,338,0.0,0.0,90,0.00,,---,0.00,VWS V14.01,2013-08-24 04:31:00,
2013-08-24 00:36:00,65.4,62.7,30.06,NNW,338,0.0,1.0,91,0.00,,---,0.00,VWS V14.01,2013-08-24 04:36:00,
2013-08-24 00:41:00,65.2,62.5,30.06,NNW,338,0.0,1.0,91,0.00,,---,0.00,VWS V14.01,2013-08-24 04:41:00,
2013-08-24 00:46:00,65.0,62.3,30.06,NNW,338,0.0,1.0,91,0.00,,---,0.00,VWS V14.01,2013-08-24 04:46:00,
2013-08-24 00:51:00,64.9,62.2,30.06,NW,321,0.0,3.0,91,0.00,,---,0.00,VWS V14.01,2013-08-24 04:51:00,
2013-08-24 00:56:00,64.7,62.3,30.07,NW,321,0.0,3.0,92,0.00,,---,0.00,VWS V14.01,2013-08-24 04:56:00,
2013-08-24 01:00:00,64.6,62.2,30.07,NW,321,0.0,0.0,92,0.00,,---,0.00,VWS V14.01,2013-08-24 05:00:00,
2013-08-24 01:05:00,64.5,62.1,30.07,NW,321,0.0,1.0,92,0.00,,---,0.00,VWS V14.01,2013-08-24 05:05:00,
2013-08-24 01:10:00,64.4,62.3,30.07,NW,321,0.0,1.0,93,0.00,,---,0.00,VWS V14.01,2013-08-24 05:10:00,
2013-08-24 01:15:00,64.3,62.2,30.07,NW,321,1.0,2.0,93,0.00,,---,0.00,VWS V14.01,2013-08-24 05:15:00,
2013-08-24 01:20:00,64.2,62.1,30.07,NW,321,0.0,2.0,93,0.00,,---,0.00,VWS V14.01,2013-08-24 05:20:00,
2013-08-24 01:25:00,64.2,62.1,30.07,NW,318,0.0,3.0,93,0.00,,---,0.00,VWS V14.01,2013-08-24 05:25:00,
2013-08-24 01:30:00,64.1,62.0,30.07,NW,318,2.0,2.0,93,0.00,,---,0.00,VWS V14.01,2013-08-24 05:30:00,
2013-08-24 01:35:00,64.1,62.0,30.07,NNW,329,2.0,3.0,93,0.00,,---,0.00,VWS V14.01,2013-08-24 05:35:00,
2013-08-24 01:40:00,64.0,61.9,30.07,NNW,327,2.0,3.0,93,0.00,,---,0.00,VWS V14.01,2013-08-24 05:40:00,
2013-08-24 01:45:00,63.9,61.8,30.07,NNW,327,0.0,3.0,93,0.00,,---,0.00,VWS V14.01,2013-08-24 05:45:00,
2013-08-24 01:50:00,63.9,62.1,30.07,NNW,327,0.0,3.0,94,0.00,,---,0.00,VWS V14.01,2013-08-24 05:50:00,
2013-08-24 01:55:00,63.8,61.7,30.08,NNW,327,0.0,3.0,93,0.00,,---,0.00,VWS V14.01,2013-08-24 05:55:00,
2013-08-24 02:00:00,63.6,61.5,30.08,NNW,327,0.0,0.0,93,0.00,,---,0.00,VWS V14.01,2013-08-24 06:00:00,
2013-08-24 02:05:00,63.5,61.8,30.08,NNW,327,0.0,0.0,94,0.00,,---,0.00,VWS V14.01,2013-08-24 06:05:00,
2013-08-24 02:10:00,63.3,61.5,30.08,NNW,327,0.0,0.0,94,0.00,,---,0.00,VWS V14.01,2013-08-24 06:10:00,
2013-08-24 02:15:00,63.2,61.5,30.08,NNW,327,0.0,0.0,94,0.00,,---,0.00,VWS V14.01,2013-08-24 06:15:00,
2013-08-24 02:20:00,63.1,61.3,30.08,NNW,327,0.0,0.0,94,0.00,,---,0.00,VWS V14.01,2013-08-24 06:20:00,
2013-08-24 02:25:00,62.9,61.2,30.08,NNW,327,0.0,0.0,94,0.00,,---,0.00,VWS V14.01,2013-08-24 06:25:00,
2013-08-24 02:30:00,62.8,61.0,30.08,NNW,327,0.0,0.0,94,0.00,,---,0.00,VWS V14.01,2013-08-24 06:30:00,
2013-08-24 02:35:00,62.7,61.0,30.08,NNW,327,0.0,1.0,94,0.00,,---,0.00,VWS V14.01,2013-08-24 06:35:00,
2013-08-24 02:40:00,62.6,60.8,30.08,NNW,327,0.0,1.0,94,0.00,,---,0.00,VWS V14.01,2013-08-24 06:40:00,
2013-08-24 02:45:00,62.4,60.7,30.08,NNW,327,0.0,2.0,94,0.00,,---,0.00,VWS V14.01,2013-08-24 06:45:00,
2013-08-24 02:50:00,62.3,60.6,30.08,NNW,327,0.0,2.0,94,0.00,,---,0.00,VWS V14.01,2013-08-24 06:50:00,
2013-08-24 02:55:00,62.2,60.5,30.08,NNW,327,0.0,2.0,94,0.00,,---,0.00,VWS V14.01,2013-08-24 06:55:00,
2013-08-24 03:00:00,62.2,60.8,30.08,NNW,327,0.0,1.0,95,0.00,,---,0.00,VWS V14.01,2013-08-24 07:00:00,
2013-08-24 03:05:00,62.1,60.7,30.09,NW,326,0.0,3.0,95,0.00,,---,0.00,VWS V14.01,2013-08-24 07:05:00,
2013-08-24 03:10:00,62.1,60.7,30.08,NW,326,0.0,3.0,95,0.00,,---,0.00,VWS V14.01,2013-08-24 07:10:00,
2013-08-24 03:15:00,62.2,60.8,30.09,North,5,1.0,3.0,95,0.00,,---,0.00,VWS V14.01,2013-08-24 07:15:00,
2013-08-24 03:20:00,62.2,60.8,30.09,North,360,0.0,3.0,95,0.00,,---,0.00,VWS V14.01,2013-08-24 07:20:00,
2013-08-24 03:25:00,62.2,60.8,30.09,North,360,0.0,3.0,95,0.00,,---,0.00,VWS V14.01,2013-08-24 07:25:00,
2013-08-24 03:30:00,62.2,60.8,30.09,North,360,0.0,0.0,95,0.00,,---,0.00,VWS V14.01,2013-08-24 07:30:00,
2013-08-24 03:35:00,62.1,60.7,30.09,North,360,0.0,2.0,95,0.00,,---,0.00,VWS V14.01,2013-08-24 07:35:00,
2013-08-24 03:40:00,62.1,60.7,30.09,North,5,0.0,3.0,95,0.00,,---,0.00,VWS V14.01,2013-08-24 07:40:00,
2013-08-24 03:45:00,62.2,60.8,30.10,NNW,347,0.0,3.0,95,0.00,,---,0.00,VWS V14.01,2013-08-24 07:45:00,
2013-08-24 03:50:00,62.2,60.8,30.10,NNW,347,2.0,3.0,95,0.00,,---,0.00,VWS V14.01,2013-08-24 07:50:00,
2013-08-24 03:55:00,62.2,60.8,30.10,NNW,330,0.0,4.0,95,0.00,,---,0.00,VWS V14.01,2013-08-24 07:55:00,
2013-08-24 04:00:00,62.2,60.8,30.10,North,355,0.0,1.0,95,0.00,,---,0.00,VWS V14.01,2013-08-24 08:00:00,
2013-08-24 04:05:00,62.1,60.7,30.10,North,355,0.0,2.0,95,0.00,,---,0.00,VWS V14.01,2013-08-24 08:05:00,
2013-08-24 04:10:00,62.1,60.7,30.10,NNW,333,0.0,2.0,95,0.00,,---,0.00,VWS V14.01,2013-08-24 08:10:00,
2013-08-24 04:15:00,62.1,60.7,30.10,North,360,0.0,2.0,95,0.00,,---,0.00,VWS V14.01,2013-08-24 08:15:00,
2013-08-24 04:20:00,62.1,60.7,30.10,West,276,0.0,4.0,95,0.00,,---,0.00,VWS V14.01,2013-08-24 08:20:00,
2013-08-24 04:25:00,62.1,60.7,30.11,NNW,340,3.0,6.0,95,0.00,,---,0.00,VWS V14.01,2013-08-24 08:25:00,
2013-08-24 04:30:00,62.1,60.7,30.11,NNE,22,0.0,1.0,95,0.00,,---,0.00,VWS V14.01,2013-08-24 08:30:00,
2013-08-24 04:35:00,62.0,60.6,30.11,NNW,347,1.0,5.0,95,0.00,,---,0.00,VWS V14.01,2013-08-24 08:35:00,
2013-08-24 04:40:00,61.9,60.5,30.11,North,5,0.0,5.0,95,0.00,,---,0.00,VWS V14.01,2013-08-24 08:40:00,
2013-08-24 04:45:00,61.7,60.3,30.11,NNW,336,1.0,5.0,95,0.00,,---,0.00,VWS V14.01,2013-08-24 08:45:00,
2013-08-24 04:50:00,61.7,60.3,30.11,NNW,348,2.0,5.0,95,0.00,,---,0.00,VWS V14.01,2013-08-24 08:50:00,
2013-08-24 04:55:00,61.6,60.2,30.11,North,9,0.0,5.0,95,0.00,,---,0.00,VWS V14.01,2013-08-24 08:55:00,
2013-08-24 05:00:00,61.6,60.2,30.11,North,11,0.0,5.0,95,0.00,,---,0.00,VWS V14.01,2013-08-24 09:00:00,
2013-08-24 05:05:00,61.6,60.2,30.11,North,5,2.0,6.0,95,0.00,,---,0.00,VWS V14.01,2013-08-24 09:05:00,
2013-08-24 05:10:00,61.6,60.2,30.11,NNW,338,1.0,6.0,95,0.00,,---,0.00,VWS V14.01,2013-08-24 09:10:00,
2013-08-24 05:15:00,61.6,60.2,30.11,NNW,348,1.0,6.0,95,0.00,,---,0.00,VWS V14.01,2013-08-24 09:15:00,
2013-08-24 05:20:00,61.6,59.9,30.12,North,349,0.0,6.0,94,0.00,,---,0.00,VWS V14.01,2013-08-24 09:20:00,
2013-08-24 05:25:00,61.5,59.8,30.12,NW,312,0.0,6.0,94,0.00,,---,0.00,VWS V14.01,2013-08-24 09:25:00,
2013-08-24 05:30:00,61.5,59.8,30.12,NNW,333,1.0,6.0,94,0.00,,---,0.00,VWS V14.01,2013-08-24 09:30:00,
2013-08-24 05:35:00,61.4,59.7,30.12,NNW,327,0.0,3.0,94,0.00,,---,0.00,VWS V14.01,2013-08-24 09:35:00,
2013-08-24 05:40:00,61.3,59.6,30.12,NNW,327,1.0,3.0,94,0.00,,---,0.00,VWS V14.01,2013-08-24 09:40:00,
2013-08-24 05:45:00,61.2,59.5,30.12,NNE,15,2.0,4.0,94,0.00,,---,0.00,VWS V14.01,2013-08-24 09:45:00,
2013-08-24 05:50:00,61.1,59.4,30.13,NNW,340,1.0,4.0,94,0.00,,---,0.00,VWS V14.01,2013-08-24 09:50:00,
2013-08-24 05:55:00,61.0,59.3,30.13,NW,315,3.0,4.0,94,0.00,,---,0.00,VWS V14.01,2013-08-24 09:55:00,
2013-08-24 06:00:00,61.0,59.3,30.13,North,5,1.0,4.0,94,0.00,,---,0.00,VWS V14.01,2013-08-24 10:00:00,
2013-08-24 06:05:00,60.9,59.2,30.13,NNE,22,1.0,3.0,94,0.00,,---,0.00,VWS V14.01,2013-08-24 10:05:00,
2013-08-24 06:10:00,60.9,59.2,30.14,North,5,0.0,3.0,94,0.00,,---,0.00,VWS V14.01,2013-08-24 10:10:00,
2013-08-24 06:15:00,60.9,59.2,30.14,North,355,1.0,3.0,94,0.00,,---,0.00,VWS V14.01,2013-08-24 10:15:00,
2013-08-24 06:20:00,60.8,59.1,30.14,NW,306,0.0,4.0,94,0.00,,---,0.00,VWS V14.01,2013-08-24 10:20:00,
2013-08-24 06:25:00,60.8,59.1,30.14,North,360,3.0,5.0,94,0.00,,---,0.00,VWS V14.01,2013-08-24 10:25:00,
2013-08-24 06:30:00,60.8,59.1,30.14,North,355,1.0,5.0,94,0.00,,---,0.00,VWS V14.01,2013-08-24 10:30:00,
2013-08-24 06:35:00,60.8,59.1,30.15,NNE,29,0.0,5.0,94,0.00,,---,0.00,VWS V14.01,2013-08-24 10:35:00,
2013-08-24 06:40:00,60.8,59.1,30.15,NE,39,1.0,6.0,94,0.00,,---,0.00,VWS V14.01,2013-08-24 10:40:00,
2013-08-24 06:45:00,60.8,59.1,30.15,NNE,27,1.0,6.0,94,0.00,,---,0.00,VWS V14.01,2013-08-24 10:45:00,
2013-08-24 06:50:00,60.9,59.5,30.15,North,355,0.0,6.0,95,0.00,,---,0.00,VWS V14.01,2013-08-24 10:50:00,
2013-08-24 06:54:00,60.9,59.5,30.15,North,11,1.0,6.0,95,0.00,,---,0.00,VWS V14.01,2013-08-24 10:54:00,
2013-08-24 06:59:00,61.0,59.6,30.16,ENE,57,1.0,6.0,95,0.00,,---,0.00,VWS V14.01,2013-08-24 10:59:00,
2013-08-24 07:00:00,61.0,59.3,30.13,North,360,2.0,4.0,94,0.00,,---,0.00,VWS V14.01,2013-08-24 11:00:00,
2013-08-24 07:04:00,61.1,59.7,30.16,NW,304,4.0,5.0,95,0.00,,---,0.00,VWS V14.01,2013-08-24 11:04:00,
2013-08-24 07:09:00,61.2,59.8,30.16,ENE,74,0.0,5.0,95,0.00,,---,0.00,VWS V14.01,2013-08-24 11:09:00,
2013-08-24 07:14:00,61.3,59.6,30.17,North,360,0.0,5.0,94,0.00,,---,0.00,VWS V14.01,2013-08-24 11:14:00,
2013-08-24 07:19:00,61.5,60.1,30.17,NE,39,4.0,5.0,95,0.00,,---,0.00,VWS V14.01,2013-08-24 11:19:00,
2013-08-24 07:24:00,61.6,60.2,30.17,North,5,3.0,5.0,95,0.00,,---,0.00,VWS V14.01,2013-08-24 11:24:00,
2013-08-24 07:29:00,61.7,60.0,30.17,NNE,24,0.0,5.0,94,0.00,,---,0.00,VWS V14.01,2013-08-24 11:29:00,
2013-08-24 07:30:00,60.8,59.1,30.14,North,355,1.0,5.0,94,0.00,,---,0.00,VWS V14.01,2013-08-24 11:30:00,
2013-08-24 07:34:00,62.0,60.6,30.17,NNE,22,1.0,3.0,95,0.00,,---,0.00,VWS V14.01,2013-08-24 11:34:00,
2013-08-24 07:39:00,62.5,61.0,30.17,NE,46,1.0,3.0,95,0.00,,---,0.00,VWS V14.01,2013-08-24 11:39:00,
2013-08-24 07:44:00,63.2,61.8,30.17,NE,41,1.0,5.0,95,0.00,,---,0.00,VWS V14.01,2013-08-24 11:44:00,
2013-08-24 07:49:00,63.7,62.0,30.18,NE,36,2.0,5.0,94,0.00,,---,0.00,VWS V14.01,2013-08-24 11:49:00,
2013-08-24 07:54:00,63.9,62.1,30.18,NE,34,0.0,5.0,94,0.00,,---,0.00,VWS V14.01,2013-08-24 11:54:00,
2013-08-24 07:59:00,64.0,61.9,30.18,NE,38,1.0,5.0,93,0.00,,---,0.00,VWS V14.01,2013-08-24 11:59:00,
2013-08-24 08:00:00,61.0,59.6,30.16,NNE,19,4.0,6.0,95,0.00,,---,0.00,VWS V14.01,2013-08-24 12:00:00,
2013-08-24 08:04:00,64.2,62.1,30.18,NNE,32,0.0,3.0,93,0.00,,---,0.00,VWS V14.01,2013-08-24 12:04:00,
2013-08-24 08:09:00,64.5,62.4,30.18,NE,41,1.0,3.0,93,0.00,,---,0.00,VWS V14.01,2013-08-24 12:09:00,
2013-08-24 08:14:00,65.0,63.2,30.18,NE,39,2.0,3.0,94,0.00,,---,0.00,VWS V14.01,2013-08-24 12:14:00,
2013-08-24 08:19:00,65.9,64.1,30.19,NE,55,0.0,3.0,94,0.00,,---,0.00,VWS V14.01,2013-08-24 12:19:00,
2013-08-24 08:24:00,66.5,64.1,30.19,NNE,31,2.0,7.0,92,0.00,,---,0.00,VWS V14.01,2013-08-24 12:24:00,
2013-08-24 08:29:00,66.8,64.1,30.19,NE,55,1.0,7.0,91,0.00,,---,0.00,VWS V14.01,2013-08-24 12:29:00,
2013-08-24 08:30:00,61.7,60.0,30.17,NE,38,3.0,5.0,94,0.00,,---,0.00,VWS V14.01,2013-08-24 12:30:00,
2013-08-24 08:34:00,66.9,64.2,30.19,NE,42,0.0,7.0,91,0.00,,---,0.00,VWS V14.01,2013-08-24 12:34:00,
2013-08-24 08:39:00,67.2,64.5,30.20,NNE,18,0.0,7.0,91,0.00,,---,0.00,VWS V14.01,2013-08-24 12:39:00,
2013-08-24 08:44:00,67.9,65.2,30.20,NNE,30,3.0,7.0,91,0.00,,---,0.00,VWS V14.01,2013-08-24 12:44:00,
2013-08-24 08:49:00,68.9,65.5,30.20,NE,55,3.0,7.0,89,0.00,,---,0.00,VWS V14.01,2013-08-24 12:49:00,
2013-08-24 08:54:00,69.7,66.0,30.20,NNE,20,6.0,9.0,88,0.00,,---,0.00,VWS V14.01,2013-08-24 12:54:00,
2013-08-24 08:59:00,70.4,66.7,30.20,NE,51,1.0,9.0,88,0.00,,---,0.00,VWS V14.01,2013-08-24 12:59:00,
2013-08-24 09:00:00,64.1,62.0,30.18,NNE,33,3.0,5.0,93,0.00,,---,0.00,VWS V14.01,2013-08-24 13:00:00,
2013-08-24 09:04:00,71.4,67.3,30.20,NE,53,4.0,9.0,87,0.00,,---,0.00,VWS V14.01,2013-08-24 13:04:00,
2013-08-24 09:09:00,72.1,67.3,30.20,NE,34,9.0,9.0,85,0.00,,---,0.00,VWS V14.01,2013-08-24 13:09:00,
2013-08-24 09:14:00,72.8,68.4,30.20,NE,35,6.0,11.0,86,0.00,,---,0.00,VWS V14.01,2013-08-24 13:14:00,
2013-08-24 09:19:00,73.3,67.8,30.21,NNE,20,3.0,11.0,83,0.00,,---,0.00,VWS V14.01,2013-08-24 13:19:00,
2013-08-24 09:24:00,73.4,67.6,30.21,East,82,1.0,13.0,82,0.00,,---,0.00,VWS V14.01,2013-08-24 13:24:00,
2013-08-24 09:29:00,73.2,67.0,30.21,East,87,3.0,13.0,81,0.00,,---,0.00,VWS V14.01,2013-08-24 13:29:00,
2013-08-24 09:30:00,66.8,64.1,30.19,NNE,22,1.0,7.0,91,0.00,,---,0.00,VWS V14.01,2013-08-24 13:30:00,
2013-08-24 09:34:00,73.1,67.3,30.21,ENE,58,5.0,7.0,82,0.00,,---,0.00,VWS V14.01,2013-08-24 13:34:00,
2013-08-24 09:39:00,73.3,67.1,30.21,NE,38,2.0,10.0,81,0.00,,---,0.00,VWS V14.01,2013-08-24 13:39:00,
2013-08-24 09:44:00,74.0,67.8,30.21,NE,48,8.0,11.0,81,0.00,,---,0.00,VWS V14.01,2013-08-24 13:44:00,
2013-08-24 09:49:00,74.8,67.5,30.22,East,92,11.0,11.0,78,0.00,,---,0.00,VWS V14.01,2013-08-24 13:49:00,
2013-08-24 09:54:00,75.0,67.3,30.22,NE,34,3.0,15.0,77,0.00,,---,0.00,VWS V14.01,2013-08-24 13:54:00,
2013-08-24 09:59:00,75.6,68.3,30.22,ENE,63,7.0,15.0,78,0.00,,---,0.00,VWS V14.01,2013-08-24 13:59:00,
2013-08-24 10:00:00,70.6,66.9,30.20,NE,49,5.0,9.0,88,0.00,,---,0.00,VWS V14.01,2013-08-24 14:00:00,
2013-08-24 10:04:00,75.8,67.7,30.22,East,98,10.0,11.0,76,0.00,,---,0.00,VWS V14.01,2013-08-24 14:04:00,
2013-08-24 10:09:00,75.3,67.2,30.22,East,83,10.0,16.0,76,0.00,,---,0.00,VWS V14.01,2013-08-24 14:09:00,
2013-08-24 10:14:00,75.4,67.3,30.22,NE,53,3.0,16.0,76,0.00,,---,0.00,VWS V14.01,2013-08-24 14:14:00,
2013-08-24 10:19:00,75.7,66.8,30.22,East,83,10.0,16.0,74,0.00,,---,0.00,VWS V14.01,2013-08-24 14:19:00,
2013-08-24 10:24:00,75.2,66.3,30.23,NE,49,8.0,16.0,74,0.00,,---,0.00,VWS V14.01,2013-08-24 14:24:00,
2013-08-24 10:29:00,74.6,66.5,30.23,ENE,62,4.0,16.0,76,0.00,,---,0.00,VWS V14.01,2013-08-24 14:29:00,
2013-08-24 10:30:00,73.2,67.0,30.21,NE,38,2.0,13.0,81,0.00,,---,0.00,VWS V14.01,2013-08-24 14:30:00,
2013-08-24 10:34:00,74.0,66.0,30.23,NE,36,6.0,11.0,76,0.00,,---,0.00,VWS V14.01,2013-08-24 14:34:00,
2013-08-24 10:39:00,73.4,65.8,30.23,ESE,107,5.0,11.0,77,0.00,,---,0.00,VWS V14.01,2013-08-24 14:39:00,
2013-08-24 10:44:00,73.2,65.6,30.23,NNE,24,6.0,11.0,77,0.00,,---,0.00,VWS V14.01,2013-08-24 14:44:00,
2013-08-24 10:49:00,73.0,65.4,30.23,NE,52,1.0,11.0,77,0.00,,---,0.00,VWS V14.01,2013-08-24 14:49:00,
2013-08-24 10:54:00,72.8,65.2,30.23,ENE,69,5.0,11.0,77,0.00,,---,0.00,VWS V14.01,2013-08-24 14:54:00,
2013-08-24 10:59:00,72.8,65.2,30.23,SE,142,4.0,11.0,77,0.00,,---,0.00,VWS V14.01,2013-08-24 14:59:00,
2013-08-24 11:00:00,75.7,68.4,30.22,ENE,68,8.0,15.0,78,0.00,,---,0.00,VWS V14.01,2013-08-24 15:00:00,
2013-08-24 11:04:00,72.9,65.3,30.24,East,88,6.0,10.0,77,0.00,,---,0.00,VWS V14.01,2013-08-24 15:04:00,
2013-08-24 11:09:00,73.7,65.7,30.24,ENE,78,8.0,12.0,76,0.00,,---,0.00,VWS V14.01,2013-08-24 15:09:00,
2013-08-24 11:14:00,74.4,66.0,30.24,NNE,15,12.0,12.0,75,0.00,,---,0.00,VWS V14.01,2013-08-24 15:14:00,
2013-08-24 11:19:00,75.3,66.4,30.23,ENE,76,3.0,12.0,74,0.00,,---,0.00,VWS V14.01,2013-08-24 15:19:00,
2013-08-24 11:24:00,75.9,65.8,30.24,East,84,14.0,14.0,71,0.00,,---,0.00,VWS V14.01,2013-08-24 15:24:00,
2013-08-24 11:29:00,76.0,65.9,30.24,NNE,17,3.0,14.0,71,0.00,,---,0.00,VWS V14.01,2013-08-24 15:29:00,
2013-08-24 11:30:00,74.5,66.1,30.23,ENE,67,2.0,16.0,75,0.00,,---,0.00,VWS V14.01,2013-08-24 15:30:00,
2013-08-24 11:34:00,76.2,65.7,30.24,ENE,66,1.0,12.0,70,0.00,,---,0.00,VWS V14.01,2013-08-24 15:34:00,
2013-08-24 11:39:00,76.4,65.9,30.24,ENE,63,14.0,14.0,70,0.00,,---,0.00,VWS V14.01,2013-08-24 15:39:00,
2013-08-24 11:44:00,76.4,65.9,30.24,East,79,6.0,15.0,70,0.00,,---,0.00,VWS V14.01,2013-08-24 15:44:00,
2013-08-24 11:49:00,76.2,65.7,30.24,NNE,12,6.0,15.0,70,0.00,,---,0.00,VWS V14.01,2013-08-24 15:49:00,
2013-08-24 11:54:00,76.2,65.7,30.24,East,97,3.0,15.0,70,0.00,,---,0.00,VWS V14.01,2013-08-24 15:54:00,
2013-08-24 11:59:00,76.2,65.7,30.24,ENE,65,7.0,15.0,70,0.00,,---,0.00,VWS V14.01,2013-08-24 15:59:00,
2013-08-24 12:00:00,72.8,65.2,30.23,ENE,74,2.0,11.0,77,0.00,,---,0.00,VWS V14.01,2013-08-24 16:00:00,
2013-08-24 12:04:00,76.4,65.9,30.24,SE,136,4.0,13.0,70,0.00,,---,0.00,VWS V14.01,2013-08-24 16:04:00,
2013-08-24 12:09:00,76.5,66.0,30.24,ENE,62,4.0,14.0,70,0.00,,---,0.00,VWS V14.01,2013-08-24 16:09:00,
2013-08-24 12:14:00,76.9,65.5,30.24,NE,42,4.0,14.0,68,0.00,,---,0.00,VWS V14.01,2013-08-24 16:14:00,
2013-08-24 12:19:00,76.8,65.0,30.24,NNE,30,7.0,14.0,67,0.00,,---,0.00,VWS V14.01,2013-08-24 16:19:00,
2013-08-24 12:24:00,76.8,66.3,30.24,NE,47,1.0,14.0,70,0.00,,---,0.00,VWS V14.01,2013-08-24 16:24:00,
2013-08-24 12:29:00,76.6,66.1,30.24,East,84,7.0,14.0,70,0.00,,---,0.00,VWS V14.01,2013-08-24 16:29:00,
2013-08-24 12:30:00,76.1,66.0,30.24,NNE,12,3.0,14.0,71,0.00,,---,0.00,VWS V14.01,2013-08-24 16:30:00,
2013-08-24 12:33:00,76.4,66.3,30.23,East,92,10.0,12.0,71,0.00,,---,0.00,VWS V14.01,2013-08-24 16:33:00,
2013-08-24 12:38:00,76.3,66.6,30.24,East,91,7.0,12.0,72,0.00,,---,0.00,VWS V14.01,2013-08-24 16:38:00,
2013-08-24 12:43:00,75.8,65.7,30.24,East,86,6.0,15.0,71,0.00,,---,0.00,VWS V14.01,2013-08-24 16:43:00,
2013-08-24 12:48:00,75.8,66.5,30.24,NE,47,7.0,15.0,73,0.00,,---,0.00,VWS V14.01,2013-08-24 16:48:00,
2013-08-24 12:53:00,75.9,65.8,30.24,ESE,106,2.0,15.0,71,0.00,,---,0.00,VWS V14.01,2013-08-24 16:53:00,
2013-08-24 12:58:00,76.0,65.9,30.24,NE,45,6.0,15.0,71,0.00,,---,0.00,VWS V14.01,2013-08-24 16:58:00,
2013-08-24 13:00:00,76.2,65.7,30.24,East,88,10.0,15.0,70,0.00,,---,0.00,VWS V14.01,2013-08-24 17:00:00,
2013-08-24 13:03:00,76.0,65.9,30.24,East,96,5.0,12.0,71,0.00,,---,0.00,VWS V14.01,2013-08-24 17:03:00,
2013-08-24 13:08:00,75.8,65.7,30.24,ENE,70,12.0,12.0,71,0.00,,---,0.00,VWS V14.01,2013-08-24 17:08:00,
2013-08-24 13:13:00,75.7,66.0,30.25,East,84,7.0,14.0,72,0.00,,---,0.00,VWS V14.01,2013-08-24 17:13:00,
2013-08-24 13:18:00,75.8,65.7,30.25,East,80,13.0,14.0,71,0.00,,---,0.00,VWS V14.01,2013-08-24 17:18:00,
2013-08-24 13:23:00,75.7,66.0,30.24,SSW,207,5.0,14.0,72,0.00,,---,0.00,VWS V14.01,2013-08-24 17:23:00,
2013-08-24 13:28:00,75.7,65.6,30.25,ENE,71,3.0,16.0,71,0.00,,---,0.00,VWS V14.01,2013-08-24 17:28:00,
2013-08-24 13:30:00,75.7,65.6,30.24,NNE,31,6.0,16.0,71,0.00,,---,0.00,VWS V15.00,2013-08-24 17:30:00,
2013-08-24 13:33:00,75.6,65.9,30.25,ENE,61,8.0,11.0,72,0.00,,---,0.00,VWS V14.01,2013-08-24 17:33:00,
2013-08-24 13:38:00,75.8,65.7,30.24,East,88,9.0,11.0,71,0.00,,---,0.00,VWS V14.01,2013-08-24 17:38:00,
2013-08-24 13:43:00,75.9,65.8,30.24,East,92,6.0,14.0,71,0.00,,---,0.00,VWS V14.01,2013-08-24 17:43:00,
2013-08-24 13:48:00,76.0,65.9,30.24,ENE,74,2.0,14.0,71,0.00,,---,0.00,VWS V14.01,2013-08-24 17:48:00,
2013-08-24 13:53:00,76.0,65.9,30.24,East,96,13.0,14.0,71,0.00,,---,0.00,VWS V14.01,2013-08-24 17:53:00,
2013-08-24 13:58:00,76.1,65.2,30.24,East,98,10.0,14.0,69,0.00,,---,0.00,VWS V14.01,2013-08-24 17:58:00,
2013-08-24 14:00:00,76.1,66.0,30.24,ENE,75,5.0,16.0,71,0.00,,---,0.00,VWS V14.01,2013-08-24 18:00:00,
2013-08-24 14:03:00,75.4,65.3,30.24,East,81,5.0,16.0,71,0.00,,---,0.00,VWS V14.01,2013-08-24 18:03:00,
2013-08-24 14:08:00,75.1,65.5,30.25,ENE,62,12.0,16.0,72,0.00,,---,0.00,VWS V14.01,2013-08-24 18:08:00,
2013-08-24 14:13:00,74.9,64.5,30.24,SSE,167,6.0,16.0,70,0.00,,---,0.00,VWS V14.01,2013-08-24 18:13:00,
2013-08-24 14:18:00,74.6,64.6,30.25,ENE,61,7.0,16.0,71,0.00,,---,0.00,VWS V14.01,2013-08-24 18:18:00,
2013-08-24 14:23:00,74.6,65.0,30.25,NE,56,6.0,16.0,72,0.00,,---,0.00,VWS V14.01,2013-08-24 18:23:00,
2013-08-24 14:28:00,74.8,65.2,30.24,NE,52,6.0,18.0,72,0.00,,---,0.00,VWS V14.01,2013-08-24 18:28:00,
2013-08-24 14:30:00,75.7,65.6,30.24,NNE,31,6.0,16.0,71,0.00,,---,0.00,VWS V14.01,2013-08-24 18:30:00,
2013-08-24 14:33:00,74.5,65.3,30.24,ENE,67,8.0,13.0,73,0.00,,---,0.00,VWS V14.01,2013-08-24 18:33:00,
2013-08-24 14:38:00,74.3,65.1,30.24,East,84,2.0,13.0,73,0.00,,---,0.00,VWS V14.01,2013-08-24 18:38:00,
2013-08-24 14:43:00,74.6,65.4,30.25,ENE,65,3.0,14.0,73,0.00,,---,0.00,VWS V14.01,2013-08-24 18:43:00,
2013-08-24 14:48:00,74.7,65.1,30.25,ENE,77,9.0,14.0,72,0.00,,---,0.00,VWS V14.01,2013-08-24 18:48:00,
2013-08-24 14:53:00,74.6,65.0,30.25,SE,133,4.0,14.0,72,0.00,,---,0.00,VWS V14.01,2013-08-24 18:53:00,
2013-08-24 14:58:00,74.7,65.1,30.25,ENE,70,8.0,14.0,72,0.00,,---,0.00,VWS V14.01,2013-08-24 18:58:00,
2013-08-24 15:00:00,76.0,65.5,30.24,East,92,5.0,14.0,70,0.00,,---,0.00,VWS V14.01,2013-08-24 19:00:00,
2013-08-24 15:03:00,74.7,64.7,30.25,NE,40,7.0,10.0,71,0.00,,---,0.00,VWS V14.01,2013-08-24 19:03:00,
2013-08-24 15:08:00,74.7,65.1,30.25,NE,49,8.0,18.0,72,0.00,,---,0.00,VWS V14.01,2013-08-24 19:08:00,
2013-08-24 15:13:00,74.3,64.3,30.25,East,99,10.0,18.0,71,0.00,,---,0.00,VWS V14.01,2013-08-24 19:13:00,
2013-08-24 15:18:00,74.2,64.6,30.25,East,86,2.0,18.0,72,0.00,,---,0.00,VWS V14.01,2013-08-24 19:18:00,
2013-08-24 15:23:00,74.4,65.2,30.25,ENE,64,8.0,18.0,73,0.00,,---,0.00,VWS V14.01,2013-08-24 19:23:00,
2013-08-24 15:28:00,74.8,64.4,30.25,ENE,57,4.0,18.0,70,0.00,,---,0.00,VWS V14.01,2013-08-24 19:28:00,
2013-08-24 15:30:00,74.7,65.1,30.24,ESE,110,4.0,18.0,72,0.00,,---,0.00,VWS V14.01,2013-08-24 19:30:00,
2013-08-24 15:33:00,74.8,64.0,30.25,ENE,68,9.0,13.0,69,0.00,,---,0.00,VWS V14.01,2013-08-24 19:33:00,
2013-08-24 15:38:00,74.8,63.5,30.25,NNE,33,4.0,13.0,68,0.00,,---,0.00,VWS V14.01,2013-08-24 19:38:00,
2013-08-24 15:43:00,74.7,63.9,30.25,East,80,6.0,15.0,69,0.00,,---,0.00,VWS V14.01,2013-08-24 19:43:00,
2013-08-24 15:48:00,74.6,63.8,30.25,East,83,5.0,15.0,69,0.00,,---,0.00,VWS V14.01,2013-08-24 19:48:00,
2013-08-24 15:53:00,74.3,63.5,30.25,ENE,62,9.0,15.0,69,0.00,,---,0.00,VWS V14.01,2013-08-24 19:53:00,
2013-08-24 15:58:00,74.1,63.7,30.25,East,80,6.0,15.0,70,0.00,,---,0.00,VWS V14.01,2013-08-24 19:58:00,
2013-08-24 16:00:00,74.7,65.1,30.25,SE,142,4.0,14.0,72,0.00,,---,0.00,VWS V14.01,2013-08-24 20:00:00,
2013-08-24 16:03:00,73.9,63.5,30.25,ENE,69,5.0,16.0,70,0.00,,---,0.00,VWS V14.01,2013-08-24 20:03:00,
2013-08-24 16:08:00,73.7,63.7,30.25,ENE,61,10.0,16.0,71,0.00,,---,0.00,VWS V14.01,2013-08-24 20:08:00,
2013-08-24 16:13:00,73.7,64.1,30.25,North,351,4.0,16.0,72,0.00,,---,0.00,VWS V14.01,2013-08-24 20:13:00,
2013-08-24 16:18:00,73.6,64.0,30.25,East,90,6.0,16.0,72,0.00,,---,0.00,VWS V14.01,2013-08-24 20:18:00,
2013-08-24 16:23:00,73.6,64.4,30.25,East,82,7.0,16.0,73,0.00,,---,0.00,VWS V14.01,2013-08-24 20:23:00,
2013-08-24 16:28:00,73.6,63.6,30.25,ENE,77,8.0,16.0,71,0.00,,---,0.00,VWS V14.01,2013-08-24 20:28:00,
2013-08-24 16:30:00,74.8,64.4,30.25,NE,56,3.0,18.0,70,0.00,,---,0.00,VWS V14.01,2013-08-24 20:30:00,
2013-08-24 16:33:00,73.6,64.4,30.25,NE,38,6.0,10.0,73,0.00,,---,0.00,VWS V14.01,2013-08-24 20:33:00,
2013-08-24 16:38:00,73.6,65.6,30.26,NE,44,4.0,10.0,76,0.00,,---,0.00,VWS V14.01,2013-08-24 20:38:00,
2013-08-24 16:43:00,73.6,65.6,30.26,NE,49,2.0,10.0,76,0.00,,---,0.00,VWS V14.01,2013-08-24 20:43:00,
2013-08-24 16:48:00,73.5,65.5,30.26,ESE,116,4.0,10.0,76,0.00,,---,0.00,VWS V14.01,2013-08-24 20:48:00,
2013-08-24 16:53:00,73.4,65.8,30.26,NE,37,3.0,10.0,77,0.00,,---,0.00,VWS V14.01,2013-08-24 20:53:00,
2013-08-24 16:58:00,73.2,65.2,30.26,ENE,72,2.0,12.0,76,0.00,,---,0.00,VWS V14.01,2013-08-24 20:58:00,
2013-08-24 17:00:00,74.0,64.0,30.25,East,81,7.0,15.0,71,0.00,,---,0.00,VWS V14.01,2013-08-24 21:00:00,
2013-08-24 17:03:00,72.9,65.7,30.26,ENE,77,2.0,10.0,78,0.00,,---,0.00,VWS V14.01,2013-08-24 21:03:00,
2013-08-24 17:08:00,72.8,65.9,30.26,ENE,67,5.0,11.0,79,0.00,,---,0.00,VWS V14.01,2013-08-24 21:08:00,
2013-08-24 17:13:00,72.8,66.3,30.26,NE,38,4.0,11.0,80,0.00,,---,0.00,VWS V14.01,2013-08-24 21:13:00,
2013-08-24 17:18:00,72.7,66.2,30.26,NW,306,5.0,13.0,80,0.00,,---,0.00,VWS V14.01,2013-08-24 21:18:00,
2013-08-24 17:23:00,72.6,66.4,30.26,East,92,6.0,13.0,81,0.00,,---,0.00,VWS V14.01,2013-08-24 21:23:00,
2013-08-24 17:28:00,72.6,66.1,30.26,SE,134,6.0,13.0,80,0.00,,---,0.00,VWS V14.01,2013-08-24 21:28:00,
2013-08-24 17:30:00,73.6,63.6,30.25,ESE,110,8.0,16.0,71,0.00,,---,0.00,VWS V14.01,2013-08-24 21:30:00,
2013-08-24 17:33:00,72.5,66.0,30.26,East,80,3.0,10.0,80,0.00,,---,0.00,VWS V14.01,2013-08-24 21:33:00,
2013-08-24 17:38:00,72.5,66.3,30.26,ENE,60,9.0,10.0,81,0.00,,---,0.00,VWS V14.01,2013-08-24 21:38:00,
2013-08-24 17:43:00,72.4,65.9,30.26,ENE,62,8.0,10.0,80,0.00,,---,0.00,VWS V14.01,2013-08-24 21:43:00,
2013-08-24 17:48:00,72.3,66.2,30.26,NE,51,3.0,11.0,81,0.00,,---,0.00,VWS V14.01,2013-08-24 21:48:00,
2013-08-24 17:53:00,72.2,66.1,30.26,ENE,69,7.0,11.0,81,0.00,,---,0.00,VWS V14.01,2013-08-24 21:53:00,
2013-08-24 17:58:00,72.1,65.9,30.26,NNE,19,7.0,11.0,81,0.00,,---,0.00,VWS V14.01,2013-08-24 21:58:00,
2013-08-24 18:00:00,73.1,65.5,30.26,ENE,64,7.0,12.0,77,0.00,,---,0.00,VWS V14.01,2013-08-24 22:00:00,
2013-08-24 18:03:00,72.0,65.9,30.26,NE,42,2.0,8.0,81,0.00,,---,0.00,VWS V14.01,2013-08-24 22:03:00,
2013-08-24 18:08:00,71.9,66.1,30.26,NE,42,3.0,9.0,82,0.00,,---,0.00,VWS V14.01,2013-08-24 22:08:00,
2013-08-24 18:13:00,71.8,66.0,30.26,ENE,59,3.0,10.0,82,0.00,,---,0.00,VWS V14.01,2013-08-24 22:13:00,
2013-08-24 18:17:00,71.7,65.9,30.26,NE,38,3.0,11.0,82,0.00,,---,0.00,VWS V14.01,2013-08-24 22:17:00,
2013-08-24 18:22:00,71.6,65.8,30.26,ENE,60,7.0,11.0,82,0.00,,---,0.00,VWS V14.01,2013-08-24 22:22:00,
2013-08-24 18:27:00,71.5,65.7,30.26,East,89,1.0,11.0,82,0.00,,---,0.00,VWS V14.01,2013-08-24 22:27:00,
2013-08-24 18:30:00,72.6,66.1,30.26,NW,324,0.0,13.0,80,0.00,,---,0.00,VWS V14.01,2013-08-24 22:30:00,
2013-08-24 18:32:00,71.4,65.6,30.26,East,93,8.0,10.0,82,0.00,,---,0.00,VWS V14.01,2013-08-24 22:32:00,
2013-08-24 18:37:00,71.3,65.5,30.26,ENE,74,7.0,10.0,82,0.00,,---,0.00,VWS V14.01,2013-08-24 22:37:00,
2013-08-24 18:42:00,71.1,65.3,30.27,ENE,73,5.0,10.0,82,0.00,,---,0.00,VWS V14.01,2013-08-24 22:42:00,
2013-08-24 18:47:00,71.0,65.6,30.26,North,360,3.0,10.0,83,0.00,,---,0.00,VWS V14.01,2013-08-24 22:47:00,
2013-08-24 18:52:00,71.0,65.6,30.26,ESE,115,3.0,10.0,83,0.00,,---,0.00,VWS V14.01,2013-08-24 22:52:00,
2013-08-24 18:57:00,70.8,65.4,30.26,ENE,73,2.0,10.0,83,0.00,,---,0.00,VWS V14.01,2013-08-24 22:57:00,
2013-08-24 19:00:00,72.0,65.9,30.26,ENE,59,7.0,11.0,81,0.00,,---,0.00,VWS V14.01,2013-08-24 23:00:00,
2013-08-24 19:02:00,70.7,65.3,30.26,East,98,6.0,7.0,83,0.00,,---,0.00,VWS V14.01,2013-08-24 23:02:00,
2013-08-24 19:07:00,70.6,65.5,30.26,NNE,29,3.0,9.0,84,0.00,,---,0.00,VWS V14.01,2013-08-24 23:07:00,
2013-08-24 19:12:00,70.4,65.3,30.26,NE,47,3.0,9.0,84,0.00,,---,0.00,VWS V14.01,2013-08-24 23:12:00,
2013-08-24 19:17:00,70.3,65.6,30.26,East,94,3.0,9.0,85,0.00,,---,0.00,VWS V14.01,2013-08-24 23:17:00,
2013-08-24 19:22:00,70.2,65.5,30.26,East,86,6.0,9.0,85,0.00,,---,0.00,VWS V14.01,2013-08-24 23:22:00,
2013-08-24 19:27:00,70.0,65.6,30.26,ENE,75,4.0,9.0,86,0.00,,---,0.00,VWS V14.01,2013-08-24 23:27:00,
2013-08-24 19:30:00,70.0,65.6,30.27,ENE,59,3.0,9.0,86,0.00,,---,0.00,VWS V14.01,2013-08-24 23:30:00,
2013-08-24 19:32:00,69.9,65.5,30.27,ENE,76,3.0,4.0,86,0.00,,---,0.00,VWS V14.01,2013-08-24 23:32:00,
2013-08-24 19:37:00,69.7,65.3,30.27,ENE,78,1.0,8.0,86,0.00,,---,0.00,VWS V14.01,2013-08-24 23:37:00,
2013-08-24 20:00:00,69.1,65.1,30.27,ENE,73,1.0,8.0,87,0.00,,---,0.00,VWS V14.01,2013-08-25 00:00:00,
2013-08-24 20:05:00,69.0,65.0,30.27,ENE,66,3.0,7.0,87,0.00,,---,0.00,VWS V14.01,2013-08-25 00:05:00,
2013-08-24 20:10:00,68.9,65.2,30.27,NE,49,1.0,7.0,88,0.00,,---,0.00,VWS V14.01,2013-08-25 00:10:00,
2013-08-24 20:15:00,68.7,65.0,30.27,ESE,103,2.0,7.0,88,0.00,,---,0.00,VWS V14.01,2013-08-25 00:15:00,
2013-08-24 20:20:00,68.6,64.9,30.28,East,80,0.0,7.0,88,0.00,,---,0.00,VWS V14.01,2013-08-25 00:20:00,
2013-08-24 20:25:00,68.6,64.9,30.28,ENE,62,0.0,7.0,88,0.00,,---,0.00,VWS V14.01,2013-08-25 00:25:00,
2013-08-24 20:30:00,68.5,64.8,30.28,ENE,63,1.0,7.0,88,0.00,,---,0.00,VWS V14.01,2013-08-25 00:30:00,
2013-08-24 20:35:00,68.3,64.6,30.28,NE,55,0.0,3.0,88,0.00,,---,0.00,VWS V14.01,2013-08-25 00:35:00,
2013-08-24 21:00:00,67.6,64.2,30.30,ENE,59,1.0,5.0,89,0.00,,---,0.00,VWS V14.01,2013-08-25 01:00:00,
2013-08-24 21:30:00,66.5,62.8,30.30,ENE,57,1.0,3.0,88,0.00,,---,0.00,VWS V14.01,2013-08-25 01:30:00,
2013-08-24 22:00:00,65.4,62.1,30.31,ENE,57,0.0,2.0,89,0.00,,---,0.00,VWS V14.01,2013-08-25 02:00:00,
2013-08-24 22:30:00,63.8,61.1,30.31,ENE,57,0.0,0.0,91,0.00,,---,0.00,VWS V14.01,2013-08-25 02:30:00,
2013-08-24 23:00:00,62.4,60.0,30.31,ENE,57,0.0,0.0,92,0.00,,---,0.00,VWS V14.01,2013-08-25 03:00:00,
2013-08-24 23:30:00,61.1,59.1,30.32,ENE,57,0.0,0.0,93,0.00,,---,0.00,VWS V14.01,2013-08-25 03:30:00,